{"data":{"norad_id":62572,"epoch":"2026-05-24T21:46:26.145984Z","epoch_age_seconds":86982,"freshness":"FRESH","line1":"1 62572U 25006U   26144.90724706  .00020549  00000+0  75396-3 0  9999","line2":"2 62572  42.9996 221.7408 0001123 276.3874  83.6849 15.27588633 76527","mean_motion":15.27588633,"eccentricity":0.0001123,"inclination_deg":42.9996,"raan_deg":221.7408,"arg_perigee_deg":276.3874,"mean_anomaly_deg":83.6849,"bstar":0.00075396,"rev_number":7652,"period_min":94.266215975437,"perigee_km":482.25273755808,"apogee_km":483.7937541493,"semimajor_km":6861.1602458537,"source":"CELESTRAK","updated_at":"2026-05-25T13:38:19.732080Z"}}